Year,Month,Day,Hour,Minute,Value (Times are PST for temperature in C)
2011,08,16,00,00,12.90
2011,08,16,00,01,12.80
2011,08,16,00,02,12.80
2011,08,16,00,03,12.80
2011,08,16,00,04,12.80
2011,08,16,00,05,12.80
2011,08,16,00,06,12.80
2011,08,16,00,07,12.70
2011,08,16,00,08,12.70
2011,08,16,00,09,12.70
2011,08,16,00,10,12.70
2011,08,16,00,11,12.70
2011,08,16,00,12,12.70
2011,08,16,00,13,12.70
2011,08,16,00,14,12.60
2011,08,16,00,15,12.60
2011,08,16,00,16,12.60
2011,08,16,00,17,12.60
2011,08,16,00,18,12.60
2011,08,16,00,19,12.60
2011,08,16,00,20,12.50
2011,08,16,00,21,12.50
2011,08,16,00,22,12.50
2011,08,16,00,23,12.50
2011,08,16,00,24,12.50
2011,08,16,00,25,12.50
2011,08,16,00,26,12.40
2011,08,16,00,27,12.40
2011,08,16,00,28,12.40
2011,08,16,00,29,12.40
2011,08,16,00,30,12.40
2011,08,16,00,31,12.40
2011,08,16,00,32,12.40
2011,08,16,00,33,12.40
2011,08,16,00,34,12.40
2011,08,16,00,35,12.30
2011,08,16,00,36,12.30
2011,08,16,00,37,12.30
2011,08,16,00,38,12.30
2011,08,16,00,39,12.30
2011,08,16,00,40,12.30
2011,08,16,00,41,12.30
2011,08,16,00,42,12.30
2011,08,16,00,43,12.30
2011,08,16,00,44,12.20
2011,08,16,00,45,12.20
2011,08,16,00,46,12.20
2011,08,16,00,47,12.20
2011,08,16,00,48,12.20
2011,08,16,00,49,12.30
2011,08,16,00,50,12.30
2011,08,16,00,51,12.30
2011,08,16,00,52,12.30
2011,08,16,00,53,12.30
2011,08,16,00,54,12.30
2011,08,16,00,55,12.30
2011,08,16,00,56,12.30
2011,08,16,00,57,12.30
2011,08,16,00,58,12.30
2011,08,16,00,59,12.30
2011,08,16,01,00,12.30
2011,08,16,01,01,12.30
2011,08,16,01,02,12.30
2011,08,16,01,03,12.30
2011,08,16,01,04,12.30
2011,08,16,01,05,12.30
2011,08,16,01,06,12.30
2011,08,16,01,07,12.20
2011,08,16,01,08,12.00
2011,08,16,01,09,11.90
2011,08,16,01,10,11.90
2011,08,16,01,11,11.90
2011,08,16,01,12,11.80
2011,08,16,01,13,11.80
2011,08,16,01,14,11.80
2011,08,16,01,15,11.80
2011,08,16,01,16,11.80
2011,08,16,01,17,11.70
2011,08,16,01,18,11.70
2011,08,16,01,19,11.70
2011,08,16,01,20,11.70
2011,08,16,01,21,11.70
2011,08,16,01,22,11.70
2011,08,16,01,23,11.70
2011,08,16,01,24,11.70
2011,08,16,01,25,11.70
2011,08,16,01,26,11.70
2011,08,16,01,27,11.70
2011,08,16,01,28,11.60
2011,08,16,01,29,11.60
2011,08,16,01,30,11.60
2011,08,16,01,31,11.60
2011,08,16,01,32,11.60
2011,08,16,01,33,11.60
2011,08,16,01,34,11.60
2011,08,16,01,35,11.60
2011,08,16,01,36,11.60
2011,08,16,01,37,11.60
2011,08,16,01,38,11.60
2011,08,16,01,39,11.60
2011,08,16,01,40,11.60
2011,08,16,01,41,11.60
2011,08,16,01,42,11.60
2011,08,16,01,43,11.60
2011,08,16,01,44,11.60
2011,08,16,01,45,11.60
2011,08,16,01,46,11.60
2011,08,16,01,47,11.60
2011,08,16,01,48,11.60
2011,08,16,01,49,11.60
2011,08,16,01,50,11.60
2011,08,16,01,51,11.70
2011,08,16,01,52,11.70
2011,08,16,01,53,11.80
2011,08,16,01,54,11.80
2011,08,16,01,55,11.80
2011,08,16,01,56,11.80
2011,08,16,01,57,11.80
2011,08,16,01,58,11.80
2011,08,16,01,59,11.80
2011,08,16,02,00,11.80
2011,08,16,02,01,11.80
2011,08,16,02,02,11.80
2011,08,16,02,03,11.80
2011,08,16,02,04,11.80
2011,08,16,02,05,11.80
2011,08,16,02,06,11.80
2011,08,16,02,07,11.80
2011,08,16,02,08,11.80
2011,08,16,02,09,11.80
2011,08,16,02,10,11.80
2011,08,16,02,11,11.80
2011,08,16,02,12,11.80
2011,08,16,02,13,11.80
2011,08,16,02,14,11.70
2011,08,16,02,15,11.70
2011,08,16,02,16,11.70
2011,08,16,02,17,11.60
2011,08,16,02,18,11.60
2011,08,16,02,19,11.60
2011,08,16,02,20,11.60
2011,08,16,02,21,11.60
2011,08,16,02,22,11.60
2011,08,16,02,23,11.60
2011,08,16,02,24,11.50
2011,08,16,02,25,11.40
2011,08,16,02,26,11.40
2011,08,16,02,27,11.40
2011,08,16,02,28,11.40
2011,08,16,02,29,11.40
2011,08,16,02,30,11.40
2011,08,16,02,31,11.40
2011,08,16,02,32,11.40
2011,08,16,02,33,11.40
2011,08,16,02,34,11.40
2011,08,16,02,35,11.40
2011,08,16,02,36,11.40
2011,08,16,02,37,11.40
2011,08,16,02,38,11.40
2011,08,16,02,39,11.40
2011,08,16,02,40,11.40
2011,08,16,02,41,11.30
2011,08,16,02,42,11.30
2011,08,16,02,43,11.20
2011,08,16,02,44,11.20
2011,08,16,02,45,11.20
2011,08,16,02,46,11.20
2011,08,16,02,47,11.20
2011,08,16,02,48,11.20
2011,08,16,02,49,11.20
2011,08,16,02,50,11.20
2011,08,16,02,51,11.20
2011,08,16,02,52,11.20
2011,08,16,02,53,11.20
2011,08,16,02,54,11.20
2011,08,16,02,55,11.20
2011,08,16,02,56,11.20
2011,08,16,02,57,11.20
2011,08,16,02,58,11.20
2011,08,16,02,59,11.20
2011,08,16,03,00,11.20
2011,08,16,03,01,11.20
2011,08,16,03,02,11.20
2011,08,16,03,03,11.20
2011,08,16,03,04,11.20
2011,08,16,03,05,11.20
2011,08,16,03,06,11.20
2011,08,16,03,07,11.20
2011,08,16,03,08,11.20
2011,08,16,03,09,11.20
2011,08,16,03,10,11.20
2011,08,16,03,11,11.20
2011,08,16,03,12,11.20
2011,08,16,03,13,11.10
2011,08,16,03,14,11.10
2011,08,16,03,15,11.10
2011,08,16,03,16,11.10
2011,08,16,03,17,11.10
2011,08,16,03,18,11.10
2011,08,16,03,19,11.10
2011,08,16,03,20,11.10
2011,08,16,03,21,11.10
2011,08,16,03,22,11.10
2011,08,16,03,23,11.10
2011,08,16,03,24,11.10
2011,08,16,03,25,11.10
2011,08,16,03,26,11.10
2011,08,16,03,27,11.10
2011,08,16,03,28,11.10
2011,08,16,03,29,11.10
2011,08,16,03,30,11.10
2011,08,16,03,31,11.10
2011,08,16,03,32,11.10
2011,08,16,03,33,11.10
2011,08,16,03,34,11.00
2011,08,16,03,35,10.90
2011,08,16,03,36,10.90
2011,08,16,03,37,10.90
2011,08,16,03,38,10.90
2011,08,16,03,39,10.80
2011,08,16,03,40,10.80
2011,08,16,03,41,10.70
2011,08,16,03,42,10.70
2011,08,16,03,43,10.70
2011,08,16,03,44,10.70
2011,08,16,03,45,10.70
2011,08,16,03,46,10.60
2011,08,16,03,47,10.60
2011,08,16,03,48,10.60
2011,08,16,03,49,10.60
2011,08,16,03,50,10.60
2011,08,16,03,51,10.60
2011,08,16,03,52,10.60
2011,08,16,03,53,10.60
2011,08,16,03,54,10.60
2011,08,16,03,55,10.60
2011,08,16,03,56,10.60
2011,08,16,03,57,10.60
2011,08,16,03,58,10.60
2011,08,16,03,59,10.60
2011,08,16,04,00,10.60
2011,08,16,04,01,10.60
2011,08,16,04,02,10.60
2011,08,16,04,03,10.60
2011,08,16,04,04,10.60
2011,08,16,04,05,10.60
2011,08,16,04,06,10.60
2011,08,16,04,07,10.60
2011,08,16,04,08,10.50
2011,08,16,04,09,10.40
2011,08,16,04,10,10.40
2011,08,16,04,11,10.40
2011,08,16,04,12,10.40
2011,08,16,04,13,10.40
2011,08,16,04,14,10.40
2011,08,16,04,15,10.40
2011,08,16,04,16,10.40
2011,08,16,04,17,10.40
2011,08,16,04,18,10.40
2011,08,16,04,19,10.40
2011,08,16,04,20,10.40
2011,08,16,04,21,10.40
2011,08,16,04,22,10.40
2011,08,16,04,23,10.40
2011,08,16,04,24,10.40
2011,08,16,04,25,10.40
2011,08,16,04,26,10.40
2011,08,16,04,27,10.30
2011,08,16,04,28,10.30
2011,08,16,04,29,10.30
2011,08,16,04,30,10.30
2011,08,16,04,31,10.30
2011,08,16,04,32,10.20
2011,08,16,04,33,10.20
2011,08,16,04,34,10.20
2011,08,16,04,35,10.20
2011,08,16,04,36,10.20
2011,08,16,04,37,10.20
2011,08,16,04,38,10.10
2011,08,16,04,39,10.10
2011,08,16,04,40,10.10
2011,08,16,04,41,10.10
2011,08,16,04,42,10.10
2011,08,16,04,43,10.10
2011,08,16,04,44,10.20
2011,08,16,04,45,10.20
2011,08,16,04,46,10.30
2011,08,16,04,47,10.40
2011,08,16,04,48,10.40
2011,08,16,04,49,10.40
2011,08,16,04,50,10.60
2011,08,16,04,51,10.60
2011,08,16,04,52,10.60
2011,08,16,04,53,10.60
2011,08,16,04,54,10.70
2011,08,16,04,55,10.70
2011,08,16,04,56,10.80
2011,08,16,04,57,10.80
2011,08,16,04,58,10.90
2011,08,16,04,59,10.90
2011,08,16,05,00,10.90
2011,08,16,05,01,10.90
2011,08,16,05,02,10.90
2011,08,16,05,03,10.90
2011,08,16,05,04,10.90
2011,08,16,05,05,11.00
2011,08,16,05,06,11.10
2011,08,16,05,07,11.10
2011,08,16,05,08,11.10
2011,08,16,05,09,11.10
2011,08,16,05,10,11.10
2011,08,16,05,11,11.10
2011,08,16,05,12,11.10
2011,08,16,05,13,11.10
2011,08,16,05,14,11.10
2011,08,16,05,15,11.10
2011,08,16,05,16,11.10
2011,08,16,05,17,11.10
2011,08,16,05,18,11.20
2011,08,16,05,19,11.20
2011,08,16,05,20,11.20
2011,08,16,05,21,11.10
2011,08,16,05,22,11.10
2011,08,16,05,23,11.10
2011,08,16,05,24,11.10
2011,08,16,05,25,11.10
2011,08,16,05,26,11.10
2011,08,16,05,27,11.10
2011,08,16,05,28,11.10
2011,08,16,05,29,11.10
2011,08,16,05,30,11.10
2011,08,16,05,31,11.10
2011,08,16,05,32,11.10
2011,08,16,05,33,11.10
2011,08,16,05,34,11.10
2011,08,16,05,35,11.10
2011,08,16,05,36,11.10
2011,08,16,05,37,11.10
2011,08,16,05,38,11.20
2011,08,16,05,39,11.20
2011,08,16,05,40,11.20
2011,08,16,05,41,11.20
2011,08,16,05,42,11.30
2011,08,16,05,43,11.30
2011,08,16,05,44,11.30
2011,08,16,05,45,11.40
2011,08,16,05,46,11.40
2011,08,16,05,47,11.40
2011,08,16,05,48,11.40
2011,08,16,05,49,11.40
2011,08,16,05,50,11.40
2011,08,16,05,51,11.40
2011,08,16,05,52,11.40
2011,08,16,05,53,11.40
2011,08,16,05,54,11.40
2011,08,16,05,55,11.40
2011,08,16,05,56,11.40
2011,08,16,05,57,11.40
2011,08,16,05,58,11.40
2011,08,16,05,59,11.40
2011,08,16,06,00,11.40
2011,08,16,06,01,11.40
2011,08,16,06,02,11.40
2011,08,16,06,03,11.40
2011,08,16,06,04,11.40
2011,08,16,06,05,11.40
2011,08,16,06,06,11.40
2011,08,16,06,07,11.40
2011,08,16,06,08,11.40
2011,08,16,06,09,11.40
2011,08,16,06,10,11.40
2011,08,16,06,11,11.40
2011,08,16,06,12,11.40
2011,08,16,06,13,11.40
2011,08,16,06,14,11.30
2011,08,16,06,15,11.30
2011,08,16,06,16,11.30
2011,08,16,06,17,11.30
2011,08,16,06,18,11.20
2011,08,16,06,19,11.20
2011,08,16,06,20,11.20
2011,08,16,06,21,11.20
2011,08,16,06,22,11.20
2011,08,16,06,23,11.20
2011,08,16,06,24,11.20
2011,08,16,06,25,11.20
2011,08,16,06,26,11.20
2011,08,16,06,27,11.20
2011,08,16,06,28,11.10
2011,08,16,06,29,11.10
2011,08,16,06,30,11.10
2011,08,16,06,31,11.10
2011,08,16,06,32,11.10
2011,08,16,06,33,11.10
2011,08,16,06,34,11.10
2011,08,16,06,35,11.10
2011,08,16,06,36,11.10
2011,08,16,06,37,11.10
2011,08,16,06,38,11.10
2011,08,16,06,39,11.10
2011,08,16,06,40,11.10
2011,08,16,06,41,11.20
2011,08,16,06,42,11.20
2011,08,16,06,43,11.20
2011,08,16,06,44,11.10
2011,08,16,06,45,11.10
2011,08,16,06,46,11.10
2011,08,16,06,47,11.10
2011,08,16,06,48,11.10
2011,08,16,06,49,11.10
2011,08,16,06,50,11.20
2011,08,16,06,51,11.20
2011,08,16,06,52,11.20
2011,08,16,06,53,11.30
2011,08,16,06,54,11.30
2011,08,16,06,55,11.30
2011,08,16,06,56,11.30
2011,08,16,06,57,11.30
2011,08,16,06,58,11.40
2011,08,16,06,59,11.40
2011,08,16,07,00,11.40
2011,08,16,07,01,11.40
2011,08,16,07,02,11.40
2011,08,16,07,03,11.40
2011,08,16,07,04,11.40
2011,08,16,07,05,11.40
2011,08,16,07,06,11.40
2011,08,16,07,07,11.40
2011,08,16,07,08,11.40
2011,08,16,07,09,11.40
2011,08,16,07,10,11.40
2011,08,16,07,11,11.40
2011,08,16,07,12,11.40
2011,08,16,07,13,11.40
2011,08,16,07,14,11.50
2011,08,16,07,15,11.60
2011,08,16,07,16,11.60
2011,08,16,07,17,11.60
2011,08,16,07,18,11.60
2011,08,16,07,19,11.60
2011,08,16,07,20,11.60
2011,08,16,07,21,11.60
2011,08,16,07,22,11.70
2011,08,16,07,23,11.70
2011,08,16,07,24,11.70
2011,08,16,07,25,11.70
2011,08,16,07,26,11.80
2011,08,16,07,27,11.80
2011,08,16,07,28,11.80
2011,08,16,07,29,11.80
2011,08,16,07,30,11.80
2011,08,16,07,31,11.80
2011,08,16,07,32,11.80
2011,08,16,07,33,11.80
2011,08,16,07,34,11.80
2011,08,16,07,35,11.80
2011,08,16,07,36,11.80
2011,08,16,07,37,11.80
2011,08,16,07,38,11.90
2011,08,16,07,39,11.90
2011,08,16,07,40,11.90
2011,08,16,07,41,11.90
2011,08,16,07,42,11.90
2011,08,16,07,43,11.90
2011,08,16,07,44,11.90
2011,08,16,07,45,11.90
2011,08,16,07,46,11.90
2011,08,16,07,47,11.90
2011,08,16,07,48,11.90
2011,08,16,07,49,11.90
2011,08,16,07,50,11.90
2011,08,16,07,51,11.90
2011,08,16,07,52,11.90
2011,08,16,07,53,12.00
2011,08,16,07,54,12.00
2011,08,16,07,55,12.00
2011,08,16,07,56,12.10
2011,08,16,07,57,12.10
2011,08,16,07,58,12.10
2011,08,16,07,59,12.10
2011,08,16,08,00,12.10
2011,08,16,08,01,12.10
2011,08,16,08,02,12.10
2011,08,16,08,03,12.10
2011,08,16,08,04,12.20
2011,08,16,08,05,12.20
2011,08,16,08,06,12.20
2011,08,16,08,07,12.30
2011,08,16,08,08,12.30
2011,08,16,08,09,12.30
2011,08,16,08,10,12.30
2011,08,16,08,11,12.30
2011,08,16,08,12,12.30
2011,08,16,08,13,12.30
2011,08,16,08,14,12.30
2011,08,16,08,15,12.40
2011,08,16,08,16,12.40
2011,08,16,08,17,12.40
2011,08,16,08,18,12.40
2011,08,16,08,19,12.40
2011,08,16,08,20,12.50
2011,08,16,08,21,12.50
2011,08,16,08,22,12.60
2011,08,16,08,23,12.60
2011,08,16,08,24,12.60
2011,08,16,08,25,12.60
2011,08,16,08,26,12.70
2011,08,16,08,27,12.70
2011,08,16,08,28,12.80
2011,08,16,08,29,12.80
2011,08,16,08,30,12.80
2011,08,16,08,31,12.80
2011,08,16,08,32,12.90
2011,08,16,08,33,13.00
2011,08,16,08,34,13.00
2011,08,16,08,35,13.10
2011,08,16,08,36,13.10
2011,08,16,08,37,13.20
2011,08,16,08,38,13.20
2011,08,16,08,39,13.30
2011,08,16,08,40,13.30
2011,08,16,08,41,13.30
2011,08,16,08,42,13.30
2011,08,16,08,43,13.30
2011,08,16,08,44,13.30
2011,08,16,08,45,13.40
2011,08,16,08,46,13.40
2011,08,16,08,47,13.40
2011,08,16,08,48,13.40
2011,08,16,08,49,13.40
2011,08,16,08,50,13.50
2011,08,16,08,51,13.50
2011,08,16,08,52,13.60
2011,08,16,08,53,13.60
2011,08,16,08,54,13.60
2011,08,16,08,55,13.70
2011,08,16,08,56,13.70
2011,08,16,08,57,13.70
2011,08,16,08,58,13.70
2011,08,16,08,59,13.80
2011,08,16,09,00,13.80
2011,08,16,09,01,13.90
2011,08,16,09,02,13.90
2011,08,16,09,03,14.00
2011,08,16,09,04,14.10
2011,08,16,09,05,14.20
2011,08,16,09,06,14.20
2011,08,16,09,07,14.20
2011,08,16,09,08,14.30
2011,08,16,09,09,14.40
2011,08,16,09,10,14.40
2011,08,16,09,11,14.50
2011,08,16,09,12,14.50
2011,08,16,09,13,14.50
2011,08,16,09,14,14.60
2011,08,16,09,15,14.60
2011,08,16,09,16,14.60
2011,08,16,09,17,14.60
2011,08,16,09,18,14.60
2011,08,16,09,19,14.50
2011,08,16,09,20,14.50
2011,08,16,09,21,14.40
2011,08,16,09,22,14.50
2011,08,16,09,23,14.50
2011,08,16,09,24,14.50
2011,08,16,09,25,14.40
2011,08,16,09,26,14.50
2011,08,16,09,27,14.50
2011,08,16,09,28,14.50
2011,08,16,09,29,14.50
2011,08,16,09,30,14.60
2011,08,16,09,31,14.60
2011,08,16,09,32,14.60
2011,08,16,09,33,14.60
2011,08,16,09,34,14.70
2011,08,16,09,35,14.70
2011,08,16,09,36,14.70
2011,08,16,09,37,14.80
2011,08,16,09,38,14.80
2011,08,16,09,39,14.80
2011,08,16,09,40,14.80
2011,08,16,09,41,14.70
2011,08,16,09,42,14.70
2011,08,16,09,43,14.70
2011,08,16,09,44,14.80
2011,08,16,09,45,14.80
2011,08,16,09,46,14.80
2011,08,16,09,47,14.90
2011,08,16,09,48,15.00
2011,08,16,09,49,15.10
2011,08,16,09,50,15.10
2011,08,16,09,51,15.30
2011,08,16,09,52,15.40
2011,08,16,09,53,15.50
2011,08,16,09,54,15.60
2011,08,16,09,55,15.60
2011,08,16,09,56,15.70
2011,08,16,09,57,15.80
2011,08,16,09,58,15.80
2011,08,16,09,59,15.80
2011,08,16,10,00,15.90
2011,08,16,10,01,15.90
2011,08,16,10,02,16.00
2011,08,16,10,03,16.10
2011,08,16,10,04,16.10
2011,08,16,10,05,16.10
2011,08,16,10,06,16.00
2011,08,16,10,07,15.80
2011,08,16,10,08,15.80
2011,08,16,10,09,15.80
2011,08,16,10,10,15.80
2011,08,16,10,11,15.80
2011,08,16,10,12,15.80
2011,08,16,10,13,15.80
2011,08,16,10,14,15.90
2011,08,16,10,15,15.90
2011,08,16,10,16,15.90
2011,08,16,10,17,15.90
2011,08,16,10,18,15.90
2011,08,16,10,19,16.00
2011,08,16,10,20,16.10
2011,08,16,10,21,16.10
2011,08,16,10,22,16.10
2011,08,16,10,23,16.10
2011,08,16,10,24,16.10
2011,08,16,10,25,16.10
2011,08,16,10,26,16.10
2011,08,16,10,27,16.10
2011,08,16,10,28,16.10
2011,08,16,10,29,16.10
2011,08,16,10,30,16.10
2011,08,16,10,31,16.20
2011,08,16,10,32,16.20
2011,08,16,10,33,16.30
2011,08,16,10,34,16.40
2011,08,16,10,35,16.40
2011,08,16,10,36,16.50
2011,08,16,10,37,16.60
2011,08,16,10,38,16.70
2011,08,16,10,39,16.60
2011,08,16,10,40,16.50
2011,08,16,10,41,16.40
2011,08,16,10,42,16.30
2011,08,16,10,43,16.20
2011,08,16,10,44,16.10
2011,08,16,10,45,16.10
2011,08,16,10,46,16.10
2011,08,16,10,47,16.10
2011,08,16,10,48,16.10
2011,08,16,10,49,16.00
2011,08,16,10,50,15.90
2011,08,16,10,51,15.90
2011,08,16,10,52,15.80
2011,08,16,10,53,15.80
2011,08,16,10,54,15.80
2011,08,16,10,55,15.80
2011,08,16,10,56,15.90
2011,08,16,10,57,15.90
2011,08,16,10,58,16.00
2011,08,16,10,59,16.10
2011,08,16,11,00,16.10
2011,08,16,11,01,16.10
2011,08,16,11,02,16.10
2011,08,16,11,03,16.10
2011,08,16,11,04,16.10
2011,08,16,11,05,16.20
2011,08,16,11,06,16.30
2011,08,16,11,07,16.30
2011,08,16,11,08,16.40
2011,08,16,11,09,16.40
2011,08,16,11,10,16.40
2011,08,16,11,11,16.60
2011,08,16,11,12,16.60
2011,08,16,11,13,16.60
2011,08,16,11,14,16.60
2011,08,16,11,15,16.60
2011,08,16,11,16,16.50
2011,08,16,11,17,16.40
2011,08,16,11,18,16.40
2011,08,16,11,19,16.40
2011,08,16,11,20,16.40
2011,08,16,11,21,16.60
2011,08,16,11,22,16.80
2011,08,16,11,23,16.90
2011,08,16,11,24,17.00
2011,08,16,11,25,17.20
2011,08,16,11,26,17.30
2011,08,16,11,27,17.40
2011,08,16,11,28,17.40
2011,08,16,11,29,17.40
2011,08,16,11,30,17.40
2011,08,16,11,31,17.30
2011,08,16,11,32,17.30
2011,08,16,11,33,17.30
2011,08,16,11,34,17.30
2011,08,16,11,35,17.30
2011,08,16,11,36,17.40
2011,08,16,11,37,17.50
2011,08,16,11,38,17.50
2011,08,16,11,39,17.50
2011,08,16,11,40,17.60
2011,08,16,11,41,17.60
2011,08,16,11,42,17.60
2011,08,16,11,43,17.70
2011,08,16,11,44,17.70
2011,08,16,11,45,17.70
2011,08,16,11,46,17.80
2011,08,16,11,47,17.90
2011,08,16,11,48,17.90
2011,08,16,11,49,18.00
2011,08,16,11,50,18.10
2011,08,16,11,51,18.00
2011,08,16,11,52,17.90
2011,08,16,11,53,17.90
2011,08,16,11,54,17.90
2011,08,16,11,55,17.90
2011,08,16,11,56,17.90
2011,08,16,11,57,17.90
2011,08,16,11,58,17.90
2011,08,16,11,59,17.90
2011,08,16,12,00,17.90
2011,08,16,12,01,18.00
2011,08,16,12,02,18.10
2011,08,16,12,03,18.10
2011,08,16,12,04,18.10
2011,08,16,12,05,18.10
2011,08,16,12,06,18.20
2011,08,16,12,07,18.20
2011,08,16,12,08,18.20
2011,08,16,12,09,18.30
2011,08,16,12,10,18.30
2011,08,16,12,11,18.30
2011,08,16,12,12,18.30
2011,08,16,12,13,18.30
2011,08,16,12,14,18.50
2011,08,16,12,15,18.50
2011,08,16,12,16,18.60
2011,08,16,12,17,18.60
2011,08,16,12,18,18.70
2011,08,16,12,19,18.80
2011,08,16,12,20,18.90
2011,08,16,12,21,18.90
2011,08,16,12,22,19.00
2011,08,16,12,23,19.10
2011,08,16,12,24,19.10
2011,08,16,12,25,19.10
2011,08,16,12,26,19.10
2011,08,16,12,27,19.20
2011,08,16,12,28,19.30
2011,08,16,12,29,19.30
2011,08,16,12,30,19.20
2011,08,16,12,31,19.20
2011,08,16,12,32,19.10
2011,08,16,12,33,19.20
2011,08,16,12,34,19.30
2011,08,16,12,35,19.30
2011,08,16,12,36,19.30
2011,08,16,12,37,19.30
2011,08,16,12,38,19.30
2011,08,16,12,39,19.40
2011,08,16,12,40,19.50
2011,08,16,12,41,19.40
2011,08,16,12,42,19.30
2011,08,16,12,43,19.30
2011,08,16,12,44,19.20
2011,08,16,12,45,19.20
2011,08,16,12,46,19.20
2011,08,16,12,47,19.20
2011,08,16,12,48,19.10
2011,08,16,12,49,19.10
2011,08,16,12,50,19.10
2011,08,16,12,51,19.20
2011,08,16,12,52,19.10
2011,08,16,12,53,19.10
2011,08,16,12,54,19.10
2011,08,16,12,55,19.10
2011,08,16,12,56,19.20
2011,08,16,12,57,19.20
2011,08,16,12,58,19.20
2011,08,16,12,59,19.20
2011,08,16,13,00,19.30
2011,08,16,13,01,19.40
2011,08,16,13,02,19.40
2011,08,16,13,03,19.40
2011,08,16,13,04,19.50
2011,08,16,13,05,19.60
2011,08,16,13,06,19.60
2011,08,16,13,07,19.60
2011,08,16,13,08,19.70
2011,08,16,13,09,19.70
2011,08,16,13,10,19.90
2011,08,16,13,11,19.90
2011,08,16,13,12,19.90
2011,08,16,13,13,19.80
2011,08,16,13,14,19.80
2011,08,16,13,15,19.80
2011,08,16,13,16,19.90
2011,08,16,13,17,19.90
2011,08,16,13,18,19.90
2011,08,16,13,19,19.90
2011,08,16,13,20,19.90
2011,08,16,13,21,19.90
2011,08,16,13,22,20.00
2011,08,16,13,23,20.10
2011,08,16,13,24,20.10
2011,08,16,13,25,20.10
2011,08,16,13,26,20.10
2011,08,16,13,27,20.10
2011,08,16,13,28,20.10
2011,08,16,13,29,20.20
2011,08,16,13,30,20.20
2011,08,16,13,31,20.20
2011,08,16,13,32,20.20
2011,08,16,13,33,20.20
2011,08,16,13,34,20.20
2011,08,16,13,35,20.20
2011,08,16,13,36,20.20
2011,08,16,13,37,20.30
2011,08,16,13,38,20.30
2011,08,16,13,39,20.30
2011,08,16,13,40,20.20
2011,08,16,13,41,20.20
2011,08,16,13,42,20.20
2011,08,16,13,43,20.20
2011,08,16,13,44,20.30
2011,08,16,13,45,20.30
2011,08,16,13,46,20.30
2011,08,16,13,47,20.30
2011,08,16,13,48,20.40
2011,08,16,13,49,20.50
2011,08,16,13,50,20.60
2011,08,16,13,51,20.70
2011,08,16,13,52,20.70
2011,08,16,13,53,20.80
2011,08,16,13,54,20.80
2011,08,16,13,55,20.70
2011,08,16,13,56,20.60
2011,08,16,13,57,20.40
2011,08,16,13,58,20.40
2011,08,16,13,59,20.30
2011,08,16,14,00,20.30
2011,08,16,14,01,20.30
2011,08,16,14,02,20.40
2011,08,16,14,03,20.30
2011,08,16,14,04,20.20
2011,08,16,14,05,20.20
2011,08,16,14,06,20.20
2011,08,16,14,07,20.00
2011,08,16,14,08,19.90
2011,08,16,14,09,19.90
2011,08,16,14,10,19.90
2011,08,16,14,11,19.90
2011,08,16,14,12,20.10
2011,08,16,14,13,20.10
2011,08,16,14,14,20.20
2011,08,16,14,15,20.20
2011,08,16,14,16,20.30
2011,08,16,14,17,20.30
2011,08,16,14,18,20.30
2011,08,16,14,19,20.40
2011,08,16,14,20,20.40
2011,08,16,14,21,20.50
2011,08,16,14,22,20.50
2011,08,16,14,23,20.60
2011,08,16,14,24,20.60
2011,08,16,14,25,20.60
2011,08,16,14,26,20.60
2011,08,16,14,27,20.60
2011,08,16,14,28,20.50
2011,08,16,14,29,20.50
2011,08,16,14,30,20.60
2011,08,16,14,31,20.60
2011,08,16,14,32,20.60
2011,08,16,14,33,20.50
2011,08,16,14,34,20.50
2011,08,16,14,35,20.50
2011,08,16,14,36,20.60
2011,08,16,14,37,20.60
2011,08,16,14,38,20.70
2011,08,16,14,39,20.80
2011,08,16,14,40,20.80
2011,08,16,14,41,20.80
2011,08,16,14,42,20.90
2011,08,16,14,43,20.90
2011,08,16,14,44,20.80
2011,08,16,14,45,20.90
2011,08,16,14,46,20.90
2011,08,16,14,47,20.80
2011,08,16,14,48,20.80
2011,08,16,14,49,20.80
2011,08,16,14,50,20.80
2011,08,16,14,51,20.70
2011,08,16,14,52,20.80
2011,08,16,14,53,20.80
2011,08,16,14,54,20.80
2011,08,16,14,55,20.90
2011,08,16,14,56,20.90
2011,08,16,14,57,20.80
2011,08,16,14,58,20.80
2011,08,16,14,59,20.70
2011,08,16,15,00,20.70
2011,08,16,15,01,20.80
2011,08,16,15,02,20.80
2011,08,16,15,03,20.90
2011,08,16,15,04,20.90
2011,08,16,15,05,20.90
2011,08,16,15,06,21.00
2011,08,16,15,07,21.00
2011,08,16,15,08,20.90
2011,08,16,15,09,20.90
2011,08,16,15,10,20.90
2011,08,16,15,11,20.90
2011,08,16,15,12,21.00
2011,08,16,15,13,21.00
2011,08,16,15,14,21.00
2011,08,16,15,15,21.10
2011,08,16,15,16,21.00
2011,08,16,15,17,21.10
2011,08,16,15,18,21.00
2011,08,16,15,19,21.00
2011,08,16,15,20,20.90
2011,08,16,15,21,20.90
2011,08,16,15,22,20.90
2011,08,16,15,23,20.90
2011,08,16,15,24,20.90
2011,08,16,15,25,20.90
2011,08,16,15,26,21.00
2011,08,16,15,27,21.10
2011,08,16,15,28,21.10
2011,08,16,15,29,21.10
2011,08,16,15,30,21.10
2011,08,16,15,31,21.30
2011,08,16,15,32,21.30
2011,08,16,15,33,21.30
2011,08,16,15,34,21.40
2011,08,16,15,35,21.50
2011,08,16,15,36,21.60
2011,08,16,15,37,21.60
2011,08,16,15,38,21.60
2011,08,16,15,39,21.60
2011,08,16,15,40,21.60
2011,08,16,15,41,21.60
2011,08,16,15,42,21.60
2011,08,16,15,43,21.70
2011,08,16,15,44,21.70
2011,08,16,15,45,21.70
2011,08,16,15,46,21.60
2011,08,16,15,47,21.60
2011,08,16,15,48,21.60
2011,08,16,15,49,21.60
2011,08,16,15,50,21.60
2011,08,16,15,51,21.60
2011,08,16,15,52,21.60
2011,08,16,15,53,21.70
2011,08,16,15,54,21.80
2011,08,16,15,55,21.80
2011,08,16,15,56,21.90
2011,08,16,15,57,21.90
2011,08,16,15,58,21.90
2011,08,16,15,59,21.90
2011,08,16,16,00,21.90
2011,08,16,16,01,21.90
2011,08,16,16,02,21.90
2011,08,16,16,03,22.00
2011,08,16,16,04,22.00
2011,08,16,16,05,22.10
2011,08,16,16,06,22.10
2011,08,16,16,07,22.20
2011,08,16,16,08,22.20
2011,08,16,16,09,22.20
2011,08,16,16,10,22.20
2011,08,16,16,11,22.30
2011,08,16,16,12,22.40
2011,08,16,16,13,22.40
2011,08,16,16,14,22.50
2011,08,16,16,15,22.50
2011,08,16,16,16,22.50
2011,08,16,16,17,22.50
2011,08,16,16,18,22.60
2011,08,16,16,19,22.70
2011,08,16,16,20,22.70
2011,08,16,16,21,22.70
2011,08,16,16,22,22.60
2011,08,16,16,23,22.60
2011,08,16,16,24,22.50
2011,08,16,16,25,22.40
2011,08,16,16,26,22.30
2011,08,16,16,27,22.30
2011,08,16,16,28,22.30
2011,08,16,16,29,22.30
2011,08,16,16,30,22.30
2011,08,16,16,31,22.30
2011,08,16,16,32,22.20
2011,08,16,16,33,22.20
2011,08,16,16,34,22.20
2011,08,16,16,35,22.30
2011,08,16,16,36,22.40
2011,08,16,16,37,22.40
2011,08,16,16,38,22.40
2011,08,16,16,39,22.40
2011,08,16,16,40,22.40
2011,08,16,16,41,22.50
2011,08,16,16,42,22.60
2011,08,16,16,43,22.70
2011,08,16,16,44,22.70
2011,08,16,16,45,22.60
2011,08,16,16,46,22.50
2011,08,16,16,47,22.30
2011,08,16,16,48,22.30
2011,08,16,16,49,22.30
2011,08,16,16,50,22.30
2011,08,16,16,51,22.30
2011,08,16,16,52,22.30
2011,08,16,16,53,22.20
2011,08,16,16,54,22.00
2011,08,16,16,55,22.00
2011,08,16,16,56,21.90
2011,08,16,16,57,21.80
2011,08,16,16,58,21.70
2011,08,16,16,59,21.80
2011,08,16,17,00,21.80
2011,08,16,17,01,21.80
2011,08,16,17,02,21.70
2011,08,16,17,03,21.60
2011,08,16,17,04,21.60
2011,08,16,17,05,21.60
2011,08,16,17,06,21.60
2011,08,16,17,07,21.60
2011,08,16,17,08,21.60
2011,08,16,17,09,21.60
2011,08,16,17,10,21.50
2011,08,16,17,11,21.40
2011,08,16,17,12,21.30
2011,08,16,17,13,21.40
2011,08,16,17,14,21.40
2011,08,16,17,15,21.30
2011,08,16,17,16,21.30
2011,08,16,17,17,21.30
2011,08,16,17,18,21.30
2011,08,16,17,19,21.30